| time (UTC) | temp F | wind direction | speed knots | gust knots | rain 1hr in | rain 24hr in | rain mn in | humidity % | barometer mb |
| 20260506050104 | 52 | 248 | 0.0 | 0.0 | 0.00 | 0.00 | 0.36 | 70 | 1013.2 |
| 20260506044557 | 52 | 245 | 0.0 | 0.0 | 0.00 | 0.00 | 0.36 | 67 | 1013.2 |
| 20260506043057 | 53 | 245 | 0.0 | 0.0 | 0.00 | 0.00 | 0.36 | 66 | 1012.7 |
| 20260506041602 | 53 | 215 | 0.0 | 0.0 | 0.00 | 0.00 | 0.36 | 64 | 1012.3 |
| 20260506040053 | 54 | 215 | 0.0 | 0.0 | 0.00 | 0.00 | 0.36 | 63 | 1012.6 |
| 20260506034559 | 54 | 199 | 0.0 | 0.0 | 0.00 | 0.00 | 0.36 | 62 | 1012.0 |
| 20260506033052 | 56 | 191 | 0.0 | 0.0 | 0.00 | 0.00 | 0.36 | 59 | 1011.5 |
| 20260506031552 | 57 | 30 | 0.0 | 0.0 | 0.00 | 0.00 | 0.36 | 58 | 1011.0 |
| 20260506030053 | 58 | 30 | 0.0 | 0.0 | 0.00 | 0.00 | 0.36 | 54 | 1011.1 |
| 20260506024559 | 58 | 355 | 0.0 | 0.0 | 0.00 | 0.00 | 0.36 | 53 | 1011.0 |
| 20260506023052 | 58 | 9 | 0.9 | 0.0 | 0.00 | 0.00 | 0.36 | 54 | 1010.9 |
| 20260506021550 | 59 | 244 | 0.0 | 0.0 | 0.00 | 0.00 | 0.36 | 56 | 1010.2 |
| 20260506020105 | 60 | 244 | 0.0 | 0.0 | 0.00 | 0.00 | 0.36 | 54 | 1009.9 |
| 20260506014606 | 61 | 248 | 1.7 | 0.0 | 0.00 | 0.00 | 0.36 | 49 | 1009.9 |
| 20260506013048 | 62 | 248 | 1.7 | 0.0 | 0.00 | 0.00 | 0.36 | 47 | 1009.6 |
| 20260506011610 | 65 | 247 | 1.7 | 0.0 | 0.00 | 0.00 | 0.36 | 45 | 1009.2 |
| 20260506010048 | 70 | 242 | 0.9 | 0.0 | 0.00 | 0.00 | 0.36 | 38 | 1008.1 |
| 20260506004600 | 70 | 170 | 0.9 | 0.0 | 0.00 | 0.00 | 0.36 | 38 | 1008.2 |
| 20260506003045 | 70 | 161 | 0.9 | 0.0 | 0.00 | 0.00 | 0.36 | 38 | 1008.4 |
| 20260506001545 | 71 | 172 | 0.9 | 0.0 | 0.00 | 0.00 | 0.36 | 37 | 1008.3 |
| 20260506000110 | 71 | 250 | 0.0 | 0.0 | 0.00 | 0.00 | 0.36 | 38 | 1008.2 |
| 20260505234547 | 71 | 239 | 0.9 | 0.0 | 0.00 | 0.00 | 0.36 | 37 | 1008.8 |
| 20260505233040 | 71 | 195 | 0.9 | 0.0 | 0.00 | 0.00 | 0.36 | 39 | 1008.7 |
| 20260505231537 | 70 | 150 | 0.9 | 0.0 | 0.00 | 0.00 | 0.36 | 39 | 1008.9 |
| 20260505230054 | 69 | 79 | 0.9 | 0.0 | 0.00 | 0.00 | 0.36 | 40 | 1009.0 |
| 20260505224539 | 69 | 153 | 0.0 | 0.0 | 0.00 | 0.00 | 0.36 | 43 | 1009.4 |
| 20260505223032 | 69 | 142 | 0.9 | 0.0 | 0.00 | 0.00 | 0.36 | 43 | 1009.6 |
| 20260505221529 | 68 | 140 | 0.9 | 0.0 | 0.00 | 0.00 | 0.36 | 44 | 1009.7 |
| 20260505220025 | 66 | 176 | 0.0 | 0.0 | 0.00 | 0.00 | 0.36 | 46 | 1010.1 |
| 20260505214523 | 65 | 180 | 0.9 | 0.0 | 0.00 | 0.00 | 0.36 | 48 | 1010.6 |
| 20260505213024 | 64 | 157 | 0.9 | 0.0 | 0.00 | 0.00 | 0.36 | 52 | 1011.1 |
| 20260505211526 | 63 | 263 | 0.9 | 0.0 | 0.00 | 0.00 | 0.36 | 53 | 1011.4 |
| 20260505210017 | 63 | 201 | 0.9 | 0.0 | 0.00 | 0.00 | 0.36 | 54 | 1011.2 |
| 20260505204513 | 61 | 261 | 0.9 | 0.0 | 0.00 | 0.00 | 0.36 | 57 | 1011.6 |
| 20260505203010 | 60 | 132 | 0.9 | 0.0 | 0.00 | 0.00 | 0.36 | 59 | 1011.9 |
| 20260505201505 | 58 | 177 | 0.9 | 0.0 | 0.00 | 0.00 | 0.36 | 62 | 1012.6 |
| 20260505200003 | 57 | 182 | 0.9 | 0.0 | 0.00 | 0.00 | 0.36 | 60 | 1012.9 |
| 20260505194619 | 56 | 184 | 0.9 | 0.0 | 0.00 | 0.00 | 0.36 | 63 | 1012.8 |
| 20260505193105 | 55 | 150 | 0.9 | 0.0 | 0.00 | 0.00 | 0.36 | 64 | 1013.2 |
| 20260505191607 | 55 | 177 | 0.9 | 0.0 | 0.00 | 0.00 | 0.36 | 65 | 1013.1 |
| 20260505190055 | 55 | 206 | 0.9 | 0.0 | 0.00 | 0.00 | 0.36 | 66 | 1013.1 |
| 20260505184553 | 54 | 202 | 0.9 | 0.0 | 0.00 | 0.00 | 0.36 | 68 | 1013.4 |
| 20260505183053 | 53 | 246 | 0.9 | 0.0 | 0.00 | 0.00 | 0.36 | 73 | 1013.5 |
| 20260505181547 | 51 | 230 | 0.9 | 0.0 | 0.00 | 0.00 | 0.36 | 74 | 1013.6 |
| 20260505180048 | 50 | 178 | 0.9 | 0.0 | 0.00 | 0.00 | 0.36 | 76 | 1013.6 |
| 20260505174542 | 49 | 159 | 0.0 | 0.0 | 0.00 | 0.00 | 0.36 | 76 | 1013.3 |
| 20260505173039 | 49 | 91 | 0.0 | 0.0 | 0.00 | 0.00 | 0.36 | 78 | 1013.2 |
| 20260505171538 | 48 | 335 | 0.0 | 0.0 | 0.00 | 0.00 | 0.36 | 80 | 1013.2 |
| 20260505170035 | 47 | 335 | 0.0 | 0.0 | 0.00 | 0.00 | 0.36 | 79 | 1013.2 |
| 20260505164531 | 47 | 74 | 0.0 | 0.0 | 0.00 | 0.00 | 0.36 | 81 | 1013.4 |
| 20260505163029 | 46 | 56 | 0.9 | 0.0 | 0.00 | 0.00 | 0.36 | 83 | 1013.3 |
| 20260505161527 | 46 | 73 | 0.0 | 0.0 | 0.00 | 0.00 | 0.36 | 84 | 1013.0 |
| 20260505153023 | 44 | 302 | 0.0 | 0.0 | 0.00 | 0.00 | 0.36 | 84 | 1013.1 |
| 20260505151521 | 44 | 238 | 0.0 | 0.0 | 0.00 | 0.00 | 0.36 | 85 | 1013.1 |
| 20260505124517 | 44 | 292 | 0.0 | 0.0 | 0.00 | 0.00 | 0.36 | 87 | 1010.2 |
| 20260505123013 | 44 | 292 | 0.0 | 0.0 | 0.00 | 0.00 | 0.36 | 86 | 1010.2 |
| 20260505121525 | 44 | 292 | 0.0 | 0.0 | 0.00 | 0.00 | 0.36 | 87 | 1010.1 |
| 20260505120012 | 44 | 292 | 0.0 | 0.0 | 0.00 | 0.00 | 0.36 | 87 | 1009.8 |
| 20260505114511 | 44 | 292 | 0.0 | 0.0 | 0.00 | 0.00 | 0.36 | 87 | 1009.7 |
| 20260505113011 | 44 | 292 | 0.0 | 0.0 | 0.00 | 0.00 | 0.36 | 87 | 1009.8 |
| 20260505111509 | 44 | 292 | 0.0 | 0.0 | 0.00 | 0.00 | 0.36 | 87 | 1009.8 |
| 20260505101505 | 44 | 321 | 0.0 | 0.0 | 0.00 | 0.00 | 0.36 | 86 | 1010.0 |
| 20260505100011 | 44 | 321 | 0.0 | 0.0 | 0.00 | 0.00 | 0.36 | 86 | 1010.6 |
| 20260505094507 | 44 | 321 | 0.0 | 0.0 | 0.00 | 0.00 | 0.35 | 87 | 1010.7 |
| 20260505093008 | 44 | 67 | 0.0 | 0.0 | 0.00 | 0.00 | 0.34 | 86 | 1010.8 |
| 20260505091506 | 44 | 57 | 0.0 | 0.0 | 0.00 | 0.00 | 0.33 | 86 | 1010.7 |
| 20260505090001 | 44 | 24 | 0.0 | 0.0 | 0.00 | 0.00 | 0.28 | 86 | 1010.9 |
| 20260505084603 | 44 | 27 | 0.9 | 0.0 | 0.00 | 0.00 | 0.22 | 86 | 1011.0 |
| 20260505083100 | 44 | 345 | 0.0 | 0.0 | 0.00 | 0.00 | 0.20 | 86 | 1010.6 |
| 20260505081559 | 44 | 344 | 0.0 | 0.0 | 0.00 | 0.00 | 0.19 | 86 | 1010.5 |
| 20260505080058 | 44 | 344 | 0.0 | 0.0 | 0.00 | 0.00 | 0.19 | 86 | 1010.9 |
| 20260505074558 | 44 | 344 | 0.0 | 0.0 | 0.00 | 0.00 | 0.16 | 85 | 1011.2 |
| 20260505073100 | 44 | 341 | 0.9 | 0.0 | 0.00 | 0.00 | 0.08 | 85 | 1011.4 |
| 20260505071553 | 45 | 9 | 0.0 | 0.0 | 0.00 | 0.00 | 0.06 | 85 | 1011.3 |
| 20260505070052 | 45 | 9 | 0.0 | 0.0 | 0.00 | 0.00 | 0.01 | 85 | 1010.2 |
| 20260505064555 | 45 | 306 | 0.0 | 0.0 | 0.00 | 0.00 | 0.14 | 83 | 1010.3 |
| 20260505063053 | 45 | 248 | 0.0 | 0.0 | 0.00 | 0.00 | 0.11 | 82 | 1009.9 |
| 20260505061550 | 45 | 248 | 0.0 | 0.0 | 0.00 | 0.00 | 0.11 | 83 | 1009.4 |
| 20260505060049 | 45 | 248 | 0.0 | 0.0 | 0.00 | 0.00 | 0.11 | 83 | 1009.4 |